Weather History for KINW - November, 2012

Change the Weather History Date:

Wednesday, November 28, 2012

  Actual Average Record
Temperature  
Mean Temperature 48 °F 39 °F  
Max Temperature 68 °F 54 °F 73 °F (1949)
Min Temperature 28 °F 24 °F -1 °F (1952)
Degree Days  
Heating Degree Days 17 26  
Month to date heating degree days 511 576  
Since 1 July heating degree days 735 882  
Cooling Degree Days 0 0  
Month to date cooling degree days 0 0  
Year to date cooling degree days 1442 1208  
Moisture  
Dew Point 21 °F    
Average Humidity 39    
Maximum Humidity 58    
Minimum Humidity 19    
Precipitation  
Precipitation 0.00 in 0.01 in 0.54 in (1928)
Month to date precipitation 0.27 0.47  
Year to date precipitation 5.14 6.41  
Sea Level Pressure  
Sea Level Pressure 30.22 in    
Wind  
Wind Speed 6 mph (SSE)    
Max Wind Speed 15 mph    
Max Gust Speed 18 mph    
Visibility 10 miles    
Events      
T = Trace of Precipitation, MM = Missing Value Source: NWS Daily Summary

Daily Weather History Graph

Daily Weather History Graph

Search for Another Location

Airport or City:

Trip Planner

Search our weather history database for the weather conditions in past years. The results will help you decide how hot, cold, wet, or windy it might be!

Date:

Astronomy

Nov. 28, 2012 Rise Set
Actual Time 7:10 AM MST 5:11 PM MST
Civil Twilight 6:42 AM MST 5:39 PM MST
Nautical Twilight 6:11 AM MST 6:10 PM MST
Astronomical Twilight 5:41 AM MST 6:40 PM MST
Moon 5:29 PM MST (11/28) 7:10 AM MST (11/28)
Length of Visible Light 10h 56m
Length of Day
10h 01m
Full, 100% of the Moon is Illuminated
Nov 28
Full
Dec 6
Last Quarter
Dec 13
New
Dec 19
First Quarter
Dec 28
Full

Hourly Weather History & Observations

Time (MST) Temp. Windchill Dew Point Humidity Pressure Visibility Wind Dir Wind Speed Gust Speed Precip Events Conditions
12:56 AM 35.1 °F 30.1 °F 16.0 °F 46% 30.27 in 10.0 mi East 5.8 mph - N/A   Clear
1:56 AM 33.1 °F - 17.1 °F 52% 30.27 in 10.0 mi Calm Calm - N/A   Clear
2:56 AM 30.9 °F - 17.1 °F 57% 30.26 in 10.0 mi Calm Calm - N/A   Clear
3:56 AM 30.9 °F - 18.0 °F 59% 30.26 in 10.0 mi Calm Calm - N/A   Clear
4:56 AM 32.0 °F 26.4 °F 18.0 °F 56% 30.26 in 10.0 mi SE 5.8 mph - N/A   Clear
5:56 AM 33.1 °F 27.7 °F 18.0 °F 54% 30.29 in 10.0 mi ESE 5.8 mph - N/A   Clear
6:56 AM 30.0 °F 25.2 °F 17.1 °F 59% 30.33 in 10.0 mi SE 4.6 mph - N/A   Clear
7:56 AM 33.8 °F 27.7 °F 17.6 °F 52% 30.34 in 10.0 mi SE 6.9 mph - N/A   Clear
8:56 AM 39.0 °F 33.4 °F 17.1 °F 41% 30.35 in 10.0 mi SE 8.1 mph - N/A   Clear
9:56 AM 44.1 °F 39.0 °F 17.1 °F 34% 30.33 in 10.0 mi SE 9.2 mph - N/A   Clear
10:56 AM 52.0 °F - 19.9 °F 28% 30.27 in 10.0 mi East 9.2 mph - N/A   Clear
11:56 AM 55.9 °F - 21.0 °F 26% 30.22 in 10.0 mi East 3.5 mph - N/A   Clear
12:56 PM 61.0 °F - 23.0 °F 23% 30.17 in 10.0 mi East 3.5 mph - N/A   Clear
1:56 PM 66.0 °F - 25.0 °F 21% 30.12 in 10.0 mi Variable 3.5 mph - N/A   Clear
2:56 PM 68.0 °F - 26.1 °F 21% 30.10 in 10.0 mi Calm Calm - N/A   Clear
3:56 PM 68.0 °F - 24.1 °F 19% 30.08 in 10.0 mi South 11.5 mph - N/A   Clear
4:56 PM 64.0 °F - 25.0 °F 23% 30.10 in 10.0 mi SW 9.2 mph - N/A   Clear
5:56 PM 55.9 °F - 24.1 °F 29% 30.14 in 10.0 mi SSW 10.4 mph - N/A   Clear
6:56 PM 53.1 °F - 26.1 °F 35% 30.18 in 10.0 mi SW 10.4 mph - N/A   Clear
7:56 PM 46.9 °F - 25.0 °F 42% 30.19 in 10.0 mi SSW 6.9 mph - N/A   Clear
8:56 PM 48.0 °F - 26.1 °F 42% 30.18 in 10.0 mi SW 11.5 mph - N/A   Clear
9:56 PM 44.1 °F 41.5 °F 25.0 °F 47% 30.20 in 10.0 mi SW 4.6 mph - N/A   Clear
10:56 PM 39.9 °F 37.8 °F 24.1 °F 53% 30.19 in 10.0 mi SSW 3.5 mph - N/A   Clear
11:56 PM 41.0 °F 39.0 °F 25.0 °F 53% 30.18 in 10.0 mi East 3.5 mph - N/A   Clear